GW3780 Weather Reports


Display with metric or nautical units.
time (UTC)temp
F
wind
direction
speed
MPH
gust
MPH
rain 1hr
in
rain 24hr
in
rain mn
in
humidity
%
barometer
mb
20260902164226 92 242 1.0 2.0 0.00 0.00 0.00 61 1019.3
20260902163721 92 310 0.0 2.0 0.00 0.00 0.00 63 1019.5
20260902163215 91 295 2.0 3.0 0.00 0.00 0.00 64 1019.2
20260902162713 91 300 2.0 8.0 0.00 0.00 0.00 64 1019.4
20260902162203 91 37 0.0 2.0 0.00 0.00 0.00 65 1019.3
20260902161658 91 295 2.0 3.0 0.00 0.00 0.00 66 1019.3
20260902161153 91 269 0.0 2.0 0.00 0.00 0.00 64 1019.4
20260902160650 91 325 0.0 3.0 0.00 0.00 0.00 66 1019.4
20260902160144 91 295 2.0 3.0 0.00 0.00 0.00 67 1019.5
20260902155642 90 358 1.0 4.0 0.00 0.00 0.00 66 1019.5
20260902155136 90 298 2.0 2.0 0.00 0.00 0.00 67 1019.5
20260902154631 90 312 2.0 3.0 0.00 0.00 0.00 68 1019.5
20260902154125 90 320 1.0 2.0 0.00 0.00 0.00 69 1019.5
20260902153625 89 277 0.0 3.0 0.00 0.00 0.00 68 1019.5
20260902153120 89 91 2.0 2.0 0.00 0.00 0.00 67 1019.5
20260902152616 89 296 0.0 2.0 0.00 0.00 0.00 68 1019.6
20260902152111 89 327 1.0 2.0 0.00 0.00 0.00 69 1019.5
20260902151607 88 321 0.0 2.0 0.00 0.00 0.00 69 1019.7
20260902151106 88 348 1.0 3.0 0.00 0.00 0.00 69 1019.7
20260902150601 88 326 0.0 3.0 0.00 0.00 0.00 69 1019.7
20260902150057 88 169 1.0 2.0 0.00 0.00 0.00 71 1019.8
20260902145552 88 333 3.0 4.0 0.00 0.00 0.00 72 1019.9
20260902145051 88 42 1.0 2.0 0.00 0.00 0.00 70 1019.7
20260902144548 88 336 0.0 2.0 0.00 0.00 0.00 70 1019.8
20260902144043 87 315 2.0 3.0 0.00 0.00 0.00 71 1019.9
20260902143537 87 312 1.0 3.0 0.00 0.00 0.00 71 1020.0
20260902143033 87 333 2.0 3.0 0.00 0.00 0.00 72 1019.8
20260902142528 87 123 1.0 2.0 0.00 0.00 0.00 73 1019.9
20260902142024 86 272 2.0 2.0 0.00 0.00 0.00 74 1019.7
20260902141524 86 314 2.0 2.0 0.00 0.00 0.00 75 1019.6
20260902141020 86 302 1.0 2.0 0.00 0.00 0.00 75 1019.7
20260902140519 85 316 1.0 2.0 0.00 0.00 0.00 79 1019.5
20260902140015 85 307 2.0 2.0 0.00 0.00 0.00 78 1019.7
20260902135509 85 340 1.0 2.0 0.00 0.00 0.00 77 1019.6
20260902135004 84 294 1.0 2.0 0.00 0.00 0.00 78 1019.4
20260902134500 84 325 2.0 3.0 0.00 0.00 0.00 79 1019.5
20260902133959 84 22 0.0 3.0 0.00 0.00 0.00 79 1019.4
20260902133454 85 314 2.0 2.0 0.00 0.00 0.00 77 1019.5
20260902132949 84 354 0.0 2.0 0.00 0.00 0.00 78 1019.3
20260902132444 84 324 0.0 2.0 0.00 0.00 0.00 78 1019.5
20260902131939 84 310 0.0 2.0 0.00 0.00 0.00 78 1019.6
20260902131436 83 311 0.0 1.0 0.00 0.00 0.00 79 1019.5
20260902130935 84 296 2.0 2.0 0.00 0.00 0.00 79 1019.6
20260902130432 83 319 1.0 2.0 0.00 0.00 0.00 80 1019.5
20260902125931 82 294 1.0 2.0 0.00 0.00 0.00 82 1019.5
20260902125427 82 283 0.0 2.0 0.00 0.00 0.00 82 1019.4
20260902124923 81 310 2.0 2.0 0.00 0.00 0.00 82 1019.2
20260902124419 80 293 2.0 4.0 0.00 0.00 0.00 83 1019.4
20260902123915 79 0 1.0 2.0 0.00 0.00 0.00 86 1019.2
20260902123411 78 352 0.0 1.0 0.00 0.00 0.00 89 1019.2
20260902122909 77 319 0.0 1.0 0.00 0.00 0.00 91 1019.3
20260902122405 77 312 1.0 2.0 0.00 0.00 0.00 91 1019.2
20260902121900 77 299 0.0 1.0 0.00 0.00 0.00 92 1019.1
20260902121355 77 317 2.0 2.0 0.00 0.00 0.00 93 1019.2
20260902120850 77 326 0.0 1.0 0.00 0.00 0.00 92 1019.3
20260902120346 76 321 0.0 1.0 0.00 0.00 0.00 92 1019.1
20260902115845 76 320 0.0 2.0 0.00 0.00 0.00 93 1019.2
20260902115342 76 321 0.0 2.0 0.00 0.00 0.00 93 1019.0
20260902114838 76 312 0.0 1.0 0.00 0.00 0.00 93 1019.3
20260902114334 76 297 0.0 1.0 0.00 0.00 0.00 92 1019.0
20260902113829 77 310 1.0 1.0 0.00 0.00 0.00 93 1019.2
20260902113325 76 326 1.0 2.0 0.00 0.00 0.00 92 1019.3
20260902112823 76 308 1.0 1.0 0.00 0.00 0.00 93 1019.4
20260902112320 76 279 0.0 1.0 0.00 0.00 0.00 93 1019.2
20260902111815 76 352 0.0 2.0 0.00 0.00 0.00 92 1019.1
20260902111312 76 308 0.0 2.0 0.00 0.00 0.00 92 1019.1
20260902110807 76 333 0.0 1.0 0.00 0.00 0.00 92 1019.3
20260902110303 76 306 1.0 2.0 0.00 0.00 0.00 92 1019.2
20260902105803 76 313 0.0 1.0 0.00 0.00 0.00 92 1019.3
20260902105257 76 309 0.0 1.0 0.00 0.00 0.00 92 1019.1
20260902104753 76 319 0.0 2.0 0.00 0.00 0.00 92 1019.0
20260902104249 76 325 0.0 1.0 0.00 0.00 0.00 92 1019.0
20260902103748 76 319 0.0 2.0 0.00 0.00 0.00 92 1019.1
20260902103248 76 310 1.0 1.0 0.00 0.00 0.00 92 1019.0
20260902102743 76 293 0.0 1.0 0.00 0.00 0.00 92 1018.9
20260902102241 76 301 0.0 2.0 0.00 0.00 0.00 91 1018.9
20260902101736 77 313 1.0 2.0 0.00 0.00 0.00 92 1018.9
20260902101231 77 299 0.0 1.0 0.00 0.00 0.00 91 1018.8
20260902100730 77 311 0.0 1.0 0.00 0.00 0.00 91 1018.8
20260902100225 77 295 2.0 2.0 0.00 0.00 0.00 91 1018.5
20260902095720 77 284 1.0 1.0 0.00 0.00 0.00 91 1018.6
20260902095214 77 319 1.0 2.0 0.00 0.00 0.00 91 1018.6
20260902094709 78 307 1.0 2.0 0.00 0.00 0.00 90 1018.6
20260902094205 78 344 1.0 1.0 0.00 0.00 0.00 89 1018.5
20260902093704 78 325 1.0 2.0 0.00 0.00 0.00 89 1018.6
20260902093159 78 303 0.0 2.0 0.00 0.00 0.00 89 1018.4
20260902092654 78 321 0.0 2.0 0.00 0.00 0.00 90 1018.3
20260902092149 78 333 0.0 2.0 0.00 0.00 0.00 90 1018.4
20260902091643 78 332 1.0 2.0 0.00 0.00 0.00 90 1018.4
20260902091140 78 348 1.0 2.0 0.00 0.00 0.00 89 1018.5
20260902090636 78 313 0.0 2.0 0.00 0.00 0.00 89 1018.4
20260902090135 78 324 2.0 2.0 0.00 0.00 0.00 89 1018.3
20260902085630 78 320 0.0 3.0 0.00 0.00 0.00 89 1018.3
20260902085125 78 335 2.0 2.0 0.00 0.00 0.00 89 1018.4
20260902084621 77 296 0.0 2.0 0.00 0.00 0.00 89 1018.4
20260902084116 77 318 0.0 2.0 0.00 0.00 0.00 90 1018.5
20260902083611 77 305 0.0 2.0 0.00 0.00 0.00 91 1018.2
20260902083110 76 288 0.0 3.0 0.00 0.00 0.00 92 1018.4
20260902082606 76 337 1.0 1.0 0.00 0.00 0.00 94 1018.5
20260902082103 76 346 0.0 2.0 0.00 0.00 0.00 94 1018.4
20260902081559 76 304 0.0 2.0 0.00 0.00 0.00 94 1018.3
20260902081059 76 333 0.0 1.0 0.00 0.00 0.00 94 1018.2
20260902080554 76 316 0.0 1.0 0.00 0.00 0.00 93 1018.1
20260902080051 76 344 0.0 1.0 0.00 0.00 0.00 93 1018.0
20260902075550 76 297 0.0 2.0 0.00 0.00 0.00 93 1018.5
20260902075047 76 327 1.0 1.0 0.00 0.00 0.00 93 1018.2
20260902074542 76 326 0.0 1.0 0.00 0.00 0.00 93 1018.2
20260902074037 76 347 0.0 1.0 0.00 0.00 0.00 93 1018.1
20260902073532 77 315 0.0 1.0 0.00 0.00 0.00 93 1018.4
20260902073029 77 324 1.0 2.0 0.00 0.00 0.00 93 1018.3
20260902072524 77 305 1.0 1.0 0.00 0.00 0.00 93 1018.3
20260902072021 76 32 0.0 2.0 0.00 0.00 0.00 93 1018.4
20260902071520 76 322 0.0 1.0 0.00 0.00 0.00 93 1018.1
20260902071017 76 316 0.0 1.0 0.00 0.00 0.00 93 1018.2
20260902070512 76 336 0.0 1.0 0.00 0.00 0.00 93 1018.3
20260902070011 76 322 0.0 1.0 0.00 0.00 0.00 94 1018.3
20260902065505 76 309 0.0 1.0 0.00 0.00 0.00 94 1018.1
20260902065001 76 333 0.0 1.0 0.00 0.00 0.00 94 1018.2
20260902064456 76 332 0.0 2.0 0.00 0.00 0.00 94 1018.1
20260902063952 76 313 1.0 2.0 0.00 0.00 0.00 94 1018.2
20260902063451 76 309 0.0 1.0 0.00 0.00 0.00 93 1017.9
20260902062947 76 309 0.0 0.0 0.00 0.00 0.00 93 1018.0
20260902062446 76 309 0.0 0.0 0.00 0.00 0.00 93 1018.2
20260902061941 76 316 0.0 1.0 0.00 0.00 0.00 93 1018.1
20260902061436 76 305 0.0 1.0 0.00 0.00 0.00 93 1018.1
20260902060932 77 304 0.0 2.0 0.00 0.00 0.00 93 1018.1
20260902060428 76 316 0.0 0.0 0.00 0.00 0.00 92 1018.2
20260902055924 77 323 1.0 2.0 0.00 0.00 0.00 92 1018.2
20260902055420 77 321 1.0 2.0 0.00 0.00 0.00 92 1017.9
20260902054915 77 290 0.0 2.0 0.00 0.00 0.00 92 1017.9
20260902054410 77 309 0.0 0.0 0.00 0.00 0.00 91 1018.1
20260902053905 77 279 0.0 2.0 0.00 0.00 0.00 91 1018.0
20260902053401 77 318 1.0 2.0 0.00 0.00 0.00 91 1017.8
20260902052859 77 303 1.0 1.0 0.00 0.00 0.00 90 1018.0
20260902052355 78 322 0.0 1.0 0.00 0.00 0.00 89 1018.0
20260902051850 78 333 0.0 1.0 0.00 0.00 0.00 88 1018.1
20260902051349 78 345 0.0 1.0 0.00 0.00 0.00 88 1018.1
20260902050844 78 326 0.0 2.0 0.00 0.00 0.00 87 1018.0
20260902050343 78 337 1.0 1.0 0.00 0.00 0.00 87 1018.2
20260902045838 78 335 1.0 2.0 0.00 0.00 0.00 86 1018.2
20260902045334 78 330 1.0 1.0 0.00 0.00 0.00 86 1018.2
20260902044831 78 332 1.0 1.0 0.00 0.00 0.00 86 1018.1
20260902044326 78 334 1.0 1.0 0.00 0.00 0.00 85 1018.1
20260902043827 78 333 0.0 1.0 0.00 0.00 0.00 85 1017.9
20260902043321 79 322 0.0 1.0 0.00 0.00 0.00 84 1017.7
20260902042820 79 333 0.0 1.0 0.00 0.00 0.00 84 1017.8
20260902042315 79 329 0.0 2.0 0.00 0.00 0.00 83 1017.9
20260902041811 79 319 1.0 1.0 0.00 0.00 0.00 84 1017.9
20260902041310 79 315 0.0 1.0 0.00 0.00 0.00 84 1017.8
20260902040809 79 309 0.0 1.0 0.00 0.00 0.00 83 1018.0
20260902040305 79 335 0.0 1.0 0.00 0.00 0.00 83 1017.9
20260902035803 79 331 0.0 1.0 0.00 0.00 0.00 83 1017.6
20260902035300 79 324 0.0 1.0 0.00 0.00 0.00 83 1017.7
20260902034758 79 326 0.0 1.0 0.00 0.00 0.00 83 1017.5
20260902034254 79 312 0.0 1.0 0.00 0.00 0.00 82 1017.7
20260902033751 79 344 0.0 1.0 0.00 0.00 0.00 82 1017.4
20260902033246 80 329 0.0 1.0 0.00 0.00 0.00 82 1017.4
20260902032739 80 322 1.0 2.0 0.00 0.00 0.00 81 1017.5
20260902032235 80 345 0.0 1.0 0.00 0.00 0.00 81 1017.4
20260902031734 80 345 0.0 1.0 0.00 0.00 0.00 81 1017.5
20260902031230 80 331 0.0 1.0 0.00 0.00 0.00 80 1017.3
20260902030725 80 326 0.0 1.0 0.00 0.00 0.00 80 1017.6
20260902030220 80 326 0.0 1.0 0.00 0.00 0.00 80 1017.5
20260902025719 80 309 1.0 1.0 0.00 0.00 0.00 80 1017.6
20260902025214 80 322 0.0 1.0 0.00 0.00 0.00 80 1017.5
20260902024709 80 325 0.0 1.0 0.00 0.00 0.00 79 1017.3
20260902024205 80 322 0.0 1.0 0.00 0.00 0.00 79 1017.3
20260902023700 80 319 0.0 1.0 0.00 0.00 0.00 79 1017.5
20260902023155 80 327 0.0 0.0 0.00 0.00 0.00 79 1017.6
20260902022654 81 315 0.0 1.0 0.00 0.00 0.00 79 1017.5
20260902022150 81 322 0.0 0.0 0.00 0.00 0.00 78 1017.3
20260902021646 81 333 0.0 1.0 0.00 0.00 0.00 78 1017.6
20260902021140 81 328 0.0 1.0 0.00 0.00 0.00 78 1017.5
20260902020637 81 297 1.0 2.0 0.00 0.00 0.00 78 1017.3
20260902020132 81 309 1.0 2.0 0.00 0.00 0.00 78 1017.5
20260902015627 81 333 0.0 1.0 0.00 0.00 0.00 78 1017.5
20260902015124 82 314 1.0 1.0 0.00 0.00 0.00 77 1017.4
20260902014619 82 320 1.0 1.0 0.00 0.00 0.00 77 1017.1
20260902014115 82 322 0.0 1.0 0.00 0.00 0.00 77 1017.1
20260902013614 82 322 0.0 1.0 0.00 0.00 0.00 77 1017.2
20260902013110 82 321 0.0 1.0 0.00 0.00 0.00 77 1016.9
20260902012605 82 311 0.0 1.0 0.00 0.00 0.00 77 1016.7
20260902012100 82 322 0.0 1.0 0.00 0.00 0.00 76 1016.7
20260902011556 83 321 0.0 1.0 0.00 0.00 0.00 76 1016.9
20260902011055 83 318 1.0 1.0 0.00 0.00 0.00 75 1016.8
20260902010554 83 332 1.0 2.0 0.00 0.00 0.00 76 1016.7
20260902010051 82 318 1.0 1.0 0.00 0.00 0.00 76 1016.6
20260902005548 83 316 0.0 1.0 0.00 0.00 0.00 76 1016.5
20260902005045 83 333 0.0 1.0 0.00 0.00 0.00 76 1016.5
20260902004543 83 324 0.0 1.0 0.00 0.00 0.00 75 1016.5
20260902004039 83 316 0.0 1.0 0.00 0.00 0.00 76 1016.5
20260902003535 83 336 0.0 1.0 0.00 0.00 0.00 75 1016.2
20260902003030 83 341 0.0 0.0 0.00 0.00 0.00 75 1016.2
20260902002526 83 319 0.0 1.0 0.00 0.00 0.00 75 1016.2
20260902002020 84 333 0.0 1.0 0.00 0.00 0.00 74 1016.2
20260902001515 84 333 0.0 1.0 0.00 0.00 0.00 73 1016.2
20260902001010 84 339 0.0 1.0 0.00 0.00 0.00 73 1016.3
20260902000505 84 333 0.0 1.0 0.00 0.00 0.00 72 1016.4
20260902000000 84 305 0.0 2.0 0.00 0.00 0.00 72 1016.4
20260901235455 85 325 1.0 1.0 0.00 0.00 0.00 71 1016.1
20260901234950 85 303 1.0 1.0 0.00 0.00 0.00 70 1016.4
20260901234444 86 309 1.0 1.0 0.00 0.00 0.00 70 1016.1
20260901233939 86 309 1.0 2.0 0.00 0.00 0.00 69 1016.4
20260901233434 86 296 1.0 2.0 0.00 0.00 0.00 67 1016.4
20260901232930 86 300 0.0 1.0 0.00 0.00 0.00 67 1016.3
20260901232430 87 309 0.0 1.0 0.00 0.00 0.00 67 1016.6
20260901231926 87 318 0.0 1.0 0.00 0.00 0.00 67 1016.4
20260901231422 87 324 1.0 2.0 0.00 0.00 0.00 66 1016.4
20260901230918 88 321 1.0 2.0 0.00 0.00 0.00 66 1016.4
20260901230417 88 314 2.0 2.0 0.00 0.00 0.00 65 1016.5
20260901225913 89 323 1.0 2.0 0.00 0.00 0.00 65 1016.7
20260901225413 88 311 1.0 2.0 0.00 0.00 0.00 65 1016.4
20260901224907 89 295 1.0 2.0 0.00 0.00 0.00 64 1016.5
20260901224404 89 331 1.0 2.0 0.00 0.00 0.00 63 1016.6
20260901223900 89 276 1.0 2.0 0.00 0.00 0.00 61 1016.7
20260901223355 89 323 2.0 2.0 0.00 0.00 0.00 62 1016.8
20260901222851 90 316 0.0 1.0 0.00 0.00 0.00 63 1016.6
20260901222347 90 316 2.0 2.0 0.00 0.00 0.00 61 1016.7
20260901221843 90 314 1.0 2.0 0.00 0.00 0.00 62 1016.6
20260901221338 90 313 2.0 2.0 0.00 0.00 0.00 63 1016.9
20260901220837 91 310 1.0 2.0 0.00 0.00 0.00 62 1016.9
20260901220337 91 316 0.0 2.0 0.00 0.00 0.00 60 1016.9
20260901215836 91 291 1.0 3.0 0.00 0.00 0.00 59 1016.9
20260901215335 91 303 2.0 2.0 0.00 0.00 0.00 60 1016.8
20260901214834 91 299 0.0 2.0 0.00 0.00 0.00 58 1016.8
20260901214333 91 289 2.0 2.0 0.00 0.00 0.00 59 1016.9
20260901213828 92 308 1.0 2.0 0.00 0.00 0.00 60 1016.8
20260901213327 92 264 0.0 2.0 0.00 0.00 0.00 57 1016.9
20260901212822 92 227 2.0 2.0 0.00 0.00 0.00 57 1017.0
20260901212318 92 319 2.0 2.0 0.00 0.00 0.00 56 1016.8
20260901211814 92 287 2.0 2.0 0.00 0.00 0.00 58 1016.8
20260901211310 92 294 0.0 2.0 0.00 0.00 0.00 56 1016.7
20260901210805 92 301 2.0 2.0 0.00 0.00 0.00 62 1017.1
20260901210301 92 287 0.0 2.0 0.00 0.00 0.00 59 1016.9
20260901205757 92 318 1.0 2.0 0.00 0.00 0.00 58 1017.1
20260901205256 92 321 2.0 2.0 0.00 0.00 0.00 55 1017.0
20260901204752 92 297 1.0 3.0 0.00 0.00 0.00 59 1017.1
20260901204248 92 313 1.0 2.0 0.00 0.00 0.00 56 1017.1
20260901203748 93 304 2.0 2.0 0.00 0.00 0.00 61 1017.0
20260901203247 93 232 2.0 3.0 0.00 0.00 0.00 54 1017.1
20260901202742 92 333 2.0 2.0 0.00 0.00 0.00 57 1017.1
20260901202238 93 326 0.0 2.0 0.00 0.00 0.00 53 1017.2
20260901201733 92 320 2.0 2.0 0.00 0.00 0.00 54 1017.3
20260901201232 93 317 2.0 2.0 0.00 0.00 0.00 53 1017.6
20260901200727 93 283 1.0 3.0 0.00 0.00 0.00 53 1017.5
20260901200222 93 319 0.0 2.0 0.00 0.00 0.00 55 1017.6
20260901195720 93 297 2.0 2.0 0.00 0.00 0.00 53 1017.5
20260901195214 93 207 1.0 3.0 0.00 0.00 0.00 54 1017.5
20260901194710 93 313 1.0 2.0 0.00 0.00 0.00 53 1017.4
20260901194158 93 305 2.0 2.0 0.00 0.00 0.00 58 1017.4
20260901193655 93 300 2.0 2.0 0.00 0.00 0.00 55 1017.6
20260901193154 93 355 0.0 2.0 0.00 0.00 0.00 53 1017.7
20260901192649 93 315 3.0 3.0 0.00 0.00 0.00 55 1017.7
20260901192144 93 295 2.0 2.0 0.00 0.00 0.00 52 1017.6
20260901191640 93 288 1.0 2.0 0.00 0.00 0.00 52 1017.6
20260901191136 93 312 0.0 2.0 0.00 0.00 0.00 55 1017.8
20260901190632 94 298 2.0 2.0 0.00 0.00 0.00 54 1017.8
20260901190131 93 308 2.0 4.0 0.00 0.00 0.00 54 1017.8
20260901185630 92 310 2.0 3.0 0.00 0.00 0.00 54 1017.8
20260901185128 93 303 2.0 3.0 0.00 0.00 0.00 53 1017.9
20260901184624 93 303 0.0 2.0 0.00 0.00 0.00 54 1017.7
20260901184119 93 322 2.0 5.0 0.00 0.00 0.00 55 1018.1
20260901183615 95 256 1.0 2.0 0.00 0.00 0.00 52 1018.2
20260901183109 94 315 0.0 2.0 0.00 0.00 0.00 52 1018.1
20260901182606 94 282 0.0 3.0 0.00 0.00 0.00 53 1018.2
20260901182105 94 302 3.0 3.0 0.00 0.00 0.00 54 1018.3
20260901181604 96 316 2.0 3.0 0.00 0.00 0.00 52 1018.5
20260901181059 96 311 2.0 3.0 0.00 0.00 0.00 51 1018.2
20260901180558 95 326 3.0 4.0 0.00 0.00 0.00 51 1018.0
20260901180052 95 283 2.0 3.0 0.00 0.00 0.00 54 1018.0
20260901175545 95 307 3.0 4.0 0.00 0.00 0.00 51 1018.0
20260901175040 94 280 2.0 3.0 0.00 0.00 0.00 52 1017.9
20260901174531 94 108 1.0 3.0 0.00 0.00 0.00 52 1017.9
20260901174026 94 197 1.0 2.0 0.00 0.00 0.00 52 1017.9
20260901173526 94 269 0.0 2.0 0.00 0.00 0.00 52 1018.0
20260901173022 93 296 1.0 3.0 0.00 0.00 0.00 54 1018.0
20260901172517 94 295 2.0 3.0 0.00 0.00 0.00 52 1018.1
20260901172015 93 355 1.0 3.0 0.00 0.00 0.00 49 1018.0
20260901171514 93 324 1.0 4.0 0.00 0.00 0.00 49 1018.0
20260901171014 92 292 0.0 2.0 0.00 0.00 0.00 53 1018.1
20260901170508 92 306 2.0 3.0 0.00 0.00 0.00 58 1018.2
20260901170003 92 325 2.0 3.0 0.00 0.00 0.00 57 1018.2
20260901165457 91 255 0.0 2.0 0.00 0.00 0.00 57 1018.2
20260901164953 91 294 0.0 2.0 0.00 0.00 0.00 60 1018.4
20260901164448 91 305 3.0 3.0 0.00 0.00 0.00 63 1018.3